RH
22 32 32 25 18 15 27 49 60 66 75 71 59 56 64 71 65 48 35 27 19 18 20 23 29 38 44 46 45 39 30 27 26 23 22 20 17 14 11 10 9 9 9 8 8 9 8 9 11 12 15 17 19 20 19 14 9 6 5 4 4 4 4 3 3 3 3 3 3 3 4 4 3 4
17 34 46 43 34 35 51 67 76 79 83 85 80 69 69 81 79 64 52 38 23 21 21 21 30 39 45 50 50 45 37 32 28 25 24 22 19 18 15 14 14 13 13 12 11 11 11 10 12 14 16 19 22 23 20 14 9 6 5 4 4 4 4 4 3 4 3 3 3 3 3 3 3 3
9 26 51 56 48 63 89 95 95 95 86 86 94 89 82 85 83 79 76 53 27 26 26 20 27 39 47 53 52 48 43 39 34 29 27 25 22 22 20 17 17 16 15 15 14 15 15 15 15 17 19 22 25 24 21 14 8 6 6 5 5 4 4 4 4 4 4 3 3 3 2 3 3 3
6 12 35 51 52 74 102 102 98 102 94 88 96 97 94 93 88 89 93 67 35 34 36 25 26 36 48 58 57 54 50 46 43 38 32 28 25 25 24 22 20 19 17 17 18 20 20 20 20 21 24 26 27 25 19 12 8 7 6 6 5 5 5 5 4 4 4 4 3 3 2 2 2 3
7 5 13 26 37 64 96 102 98 102 100 94 93 93 94 96 94 93 97 80 53 50 50 38 33 38 47 57 60 60 59 54 51 46 38 32 28 27 28 27 24 22 21 22 25 27 26 26 26 27 29 28 27 23 16 10 8 7 7 7 6 6 6 5 5 4 4 4 3 3 3 2 2 2
7 6 6 9 17 45 84 102 100 99 102 99 92 88 87 91 95 93 97 93 74 65 65 56 49 49 52 57 62 65 65 60 56 49 41 34 30 31 31 30 27 24 25 28 32 35 35 33 32 32 31 28 23 19 13 9 9 8 7 7 6 6 7 6 5 5 4 4 4 3 3 2 2 2
7 6 6 6 7 22 57 89 101 99 100 101 95 90 87 87 87 84 88 97 90 77 77 74 67 64 63 64 71 76 72 66 59 50 42 37 34 36 36 33 30 28 30 35 38 41 40 37 35 31 28 24 19 15 12 10 10 9 8 8 7 7 7 6 6 5 5 5 4 4 3 2 3 2
9 7 6 7 6 9 24 60 96 102 98 102 98 94 95 92 87 79 71 83 97 90 84 84 80 79 77 74 81 88 83 75 66 54 43 38 38 41 41 37 34 33 36 41 42 41 38 34 30 26 22 19 15 13 12 11 11 10 9 9 8 7 7 6 6 5 5 6 5 4 3 2 2 2
11 9 8 5 7 9 6 31 85 104 98 102 99 95 98 95 96 89 63 63 91 97 86 85 87 89 89 87 89 94 91 84 75 59 43 39 42 46 46 41 39 39 41 43 42 38 33 27 23 20 17 16 15 14 13 12 12 11 10 10 9 8 7 7 6 6 6 6 5 4 3 3 3 2
15 13 12 7 6 11 3 20 79 106 98 101 100 95 99 93 95 95 66 51 76 95 91 87 90 93 96 98 98 97 96 92 81 62 45 42 46 49 49 46 43 43 42 40 38 33 27 23 19 17 16 15 15 14 14 13 12 12 11 11 10 9 9 8 7 8 7 6 6 5 4 5 3 2
20 16 17 11 6 10 4 22 80 106 98 100 99 97 101 93 88 88 67 47 58 85 95 89 90 97 99 101 101 98 100 97 81 62 50 50 52 50 48 47 44 41 38 35 32 27 24 21 18 16 15 15 16 15 15 14 13 13 13 12 12 10 10 10 9 9 8 7 7 6 8 9 7 5
26 22 22 15 10 11 3 22 80 106 99 100 99 97 102 94 82 77 64 46 44 69 94 92 91 100 100 100 101 99 101 97 81 68 61 57 55 51 47 45 42 37 34 31 27 24 22 20 17 17 16 17 18 17 17 16 16 16 15 14 13 12 12 12 11 10 9 9 10 10 13 16 14 13
31 30 30 22 15 12 4 28 85 107 100 101 99 97 102 92 77 68 57 43 35 54 86 96 95 101 101 100 101 100 101 99 89 78 67 56 52 50 46 42 39 34 30 27 25 23 21 19 18 19 19 20 20 19 19 19 19 18 17 16 15 14 14 13 11 11 10 12 16 19 23 28 30 29
35 35 37 31 22 15 12 43 92 105 99 103 99 99 103 88 70 62 51 38 30 46 78 96 99 102 102 100 101 102 102 101 94 82 66 54 50 48 44 40 36 32 28 25 24 24 21 19 19 20 20 21 21 20 22 21 21 20 18 17 17 16 15 14 12 12 14 18 24 31 41 50 56 55
41 44 46 41 31 20 21 56 97 102 100 105 100 100 103 82 61 57 49 33 29 45 73 94 101 103 102 100 101 102 103 102 94 79 63 54 50 46 41 38 35 31 27 24 24 25 22 20 21 21 20 21 22 22 23 23 22 21 20 19 18 17 16 15 15 17 20 25 32 44 61 76 83 80
52 58 60 55 44 27 24 61 99 102 100 105 100 101 104 83 57 52 47 33 28 44 71 92 102 103 101 101 101 101 103 102 91 73 60 53 49 43 38 36 35 31 28 26 26 26 23 21 23 23 22 23 24 24 24 24 23 22 21 20 19 17 16 16 19 23 26 32 41 53 74 92 98 95
65 73 78 76 65 41 30 63 100 102 99 104 100 99 105 93 67 52 46 36 29 42 70 92 102 103 101 100 101 101 103 99 84 66 56 51 46 42 37 35 35 32 30 29 29 27 25 23 25 26 25 25 26 26 26 25 25 23 22 21 19 18 18 20 24 29 31 37 47 61 83 99 101 100
78 85 92 93 88 63 42 65 99 102 98 103 101 98 104 100 79 56 46 40 32 41 70 94 101 102 102 100 101 102 101 93 77 62 55 50 45 41 37 35 35 35 34 32 30 28 26 26 27 28 27 27 28 28 27 26 26 24 22 20 19 19 21 25 29 33 35 40 49 65 87 100 100 100
90 94 98 99 101 85 58 66 97 103 98 102 102 98 102 100 81 56 45 42 37 43 72 98 103 100 101 101 101 103 101 89 73 60 54 49 44 41 38 37 39 40 37 34 31 29 28 29 30 30 29 29 29 29 28 27 25 24 22 20 20 22 25 29 33 35 38 43 52 67 87 100 101 99
98 100 101 98 103 97 72 69 93 103 99 101 101 99 103 97 72 47 40 45 48 55 77 99 104 100 101 103 102 103 100 87 69 59 54 49 45 42 41 43 44 42 39 35 32 30 31 32 32 31 29 30 31 30 28 27 25 23 22 22 22 25 29 32 34 34 37 43 53 67 85 99 101 99
100 101 101 98 102 100 84 80 95 101 99 101 101 100 101 87 58 40 43 53 61 72 87 99 102 100 101 103 103 102 97 82 65 57 55 50 47 46 47 49 48 44 40 36 33 32 33 33 32 31 31 32 32 30 28 27 26 25 24 24 25 28 29 29 28 28 31 39 52 68 84 98 101 99
102 100 100 100 101 99 93 94 100 100 100 101 99 97 92 75 53 48 59 68 74 86 97 101 100 100 101 102 103 101 92 75 62 59 57 52 49 51 52 52 49 44 39 36 33 34 34 33 32 32 33 33 32 30 29 29 27 25 24 24 24 24 24 23 22 23 26 34 48 66 84 96 101 100
102 99 99 101 101 99 99 100 100 100 102 99 94 92 87 73 63 69 82 88 89 95 101 101 99 100 101 101 102 98 84 69 62 59 56 52 53 55 55 53 48 43 39 35 34 34 34 33 32 32 33 34 32 31 30 29 26 23 22 21 20 20 20 20 20 21 24 31 43 63 83 97 101 100
101 99 100 101 100 100 101 101 101 101 101 98 93 92 89 83 83 92 100 101 99 100 101 100 100 101 101 102 102 94 78 66 62 60 56 57 60 60 57 53 47 41 38 35 34 35 34 34 34 33 34 34 32 29 27 25 22 20 19 19 18 19 19 19 19 20 21 27 39 58 82 98 100 100
100 100 100 101 100 101 100 101 101 100 100 100 96 91 91 94 99 103 104 102 101 101 101 100 100 101 101 102 100 89 74 65 62 61 62 65 66 62 56 51 45 41 38 36 36 37 37 36 36 36 36 34 29 26 24 22 22 21 20 20 19 19 19 18 18 18 18 24 35 54 80 98 101 100
100 100 100 101 101 100 100 100 101 100 101 101 97 93 96 102 104 103 102 101 100 101 100 100 101 100 100 101 97 84 72 65 64 66 69 69 66 62 55 49 44 41 39 38 39 40 41 40 38 37 34 29 26 25 24 24 24 23 21 21 20 20 19 18 16 16 17 22 32 50 75 96 101 99
100 100 100 100 101 100 100 100 101 102 103 102 100 99 101 102 102 102 101 100 100 100 100 100 100 100 101 100 92 79 70 69 71 75 74 70 65 60 54 48 45 43 41 40 41 43 44 42 38 33 29 27 26 27 26 25 25 24 24 25 24 22 21 19 16 16 17 22 32 46 69 92 101 100
100 100 100 100 101 100 100 101 102 103 104 102 101 101 97 95 99 103 101 100 101 100 100 100 100 100 101 97 86 77 75 78 80 79 74 69 64 59 52 48 45 42 41 42 44 46 46 40 34 29 27 27 28 28 27 27 27 27 28 29 29 26 23 21 19 18 20 25 32 44 63 85 99 101
99 100 100 100 100 101 101 102 102 102 102 101 101 100 97 96 101 103 100 100 101 100 100 101 100 100 99 93 85 82 85 86 84 80 73 68 63 57 50 47 45 42 43 46 48 48 43 34 29 28 28 30 31 30 29 29 28 30 33 34 36 36 33 29 26 25 27 31 35 43 58 76 93 100
100 100 100 100 101 101 102 103 102 101 101 100 101 100 100 101 102 101 100 100 100 100 101 99 98 99 98 93 90 91 93 90 84 78 73 68 63 56 50 49 48 46 48 51 50 45 37 30 29 31 32 33 32 31 31 30 32 37 40 42 45 45 44 44 42 39 42 44 42 46 56 68 82 95
100 100 100 100 101 102 101 101 102 101 101 101 99 98 100 102 100 99 100 100 100 101 100 97 97 100 100 98 98 98 95 88 83 78 73 68 62 55 51 51 50 50 52 53 49 40 33 31 33 35 35 35 34 34 33 32 38 48 54 57 59 58 57 61 65 68 73 72 64 60 63 67 74 86
98 100 101 100 100 101 101 101 101 100 102 101 97 96 100 101 99 99 100 100 100 101 100 99 101 102 102 102 103 100 94 88 83 79 75 69 62 56 54 53 52 52 53 51 44 36 32 34 36 37 37 36 36 38 36 35 43 58 65 64 66 72 76 77 77 79 84 85 80 76 78 83 86 87
97 98 101 101 100 101 102 102 102 101 102 101 98 100 102 101 99 100 100 100 100 101 101 101 102 102 102 104 104 100 95 90 86 81 77 71 63 58 56 56 54 54 52 48 40 34 34 36 38 38 39 39 39 40 40 41 51 66 74 71 71 80 90 90 85 82 84 85 82 77 80 92 100 97
98 98 100 101 100 100 100 100 100 101 101 101 101 102 102 100 100 101 99 98 100 101 101 101 101 101 101 102 101 99 96 92 88 84 80 74 68 62 59 58 56 53 51 45 38 34 35 37 38 39 40 41 41 41 40 41 50 65 78 83 83 86 93 96 93 90 89 88 85 78 76 85 98 102
100 100 101 99 97 97 97 98 100 102 102 103 102 101 100 101 101 100 99 99 101 101 101 100 100 100 101 100 99 100 98 95 92 88 84 81 75 67 62 61 59 54 49 44 38 35 36 37 38 40 42 44 45 44 41 41 48 61 77 87 88 89 93 95 94 92 89 86 86 87 82 79 84 92
101 101 102 101 99 99 100 101 102 102 102 102 101 100 100 101 101 100 100 101 101 100 100 100 100 100 100 101 102 103 101 99 98 96 92 87 80 71 65 63 61 57 50 43 39 37 36 36 38 41 45 47 46 45 45 43 46 60 78 85 81 78 80 81 83 88 88 84 88 96 95 85 77 76
101 100 101 101 101 101 101 101 101 101 100 100 100 100 100 101 101 101 101 101 100 100 100 100 100 100 100 101 103 103 102 101 102 101 99 94 87 78 70 65 63 61 54 47 42 38 36 36 39 43 47 49 47 46 47 45 46 59 76 84 82 79 76 70 71 79 83 83 89 98 101 95 86 75
100 100 100 100 100 100 100 100 100 100 100 100 100 100 100 100 101 102 101 100 100 100 100 100 100 100 101 101 101 102 101 100 101 101 102 100 94 85 76 69 66 65 62 57 51 46 42 41 43 46 49 49 48 47 45 46 50 58 69 79 87 91 85 73 69 77 85 86 89 94 97 97 95 87
100 100 100 100 100 100 100 100 100 100 100 100 100 100 100 100 101 101 101 100 100 100 100 100 100 100 101 101 101 101 100 100 100 100 102 102 100 95 87 78 71 69 68 64 59 57 55 51 49 51 52 50 49 48 46 48 52 56 60 69 79 83 79 71 70 79 87 88 89 94 96 96 96 93
101 100 99 100 100 100 100 100 100 100 100 100 100 100 100 100 101 101 101 100 100 100 100 100 100 101 101 100 100 100 100 100 100 100 100 101 102 102 98 90 82 77 74 68 62 62 63 60 56 57 57 53 49 49 48 49 51 51 54 61 67 67 67 69 74 80 85 87 92 97 96 94 95 94
101 100 100 99 99 100 100 100 100 100 100 100 100 100 100 100 101 101 100 100 100 100 100 100 100 100 100 100 100 100 100 100 100 100 100 100 100 101 102 99 93 87 82 77 72 69 69 67 63 61 60 56 53 52 52 50 51 51 52 56 60 60 60 67 75 80 82 87 95 99 97 95 96 93
100 101 100 98 98 100 101 100 100 100 100 100 100 100 100 100 100 101 101 101 100 100 100 100 100 100 100 100 100 100 100 100 100 100 100 100 100 100 100 100 100 97 94 92 89 84 78 73 68 66 67 65 61 59 58 55 53 53 53 54 57 57 58 64 74 80 83 87 92 95 98 98 94 91
100 100 101 100 100 102 103 102 100 100 100 100 100 100 100 100 100 101 101 101 101 101 100 100 100 100 100 100 100 100 100 100 100 100 100 100 100 100 100 100 100 100 100 101 100 95 88 82 76 75 77 75 68 65 64 62 59 59 57 55 56 56 58 64 72 77 81 86 89 92 97 97 92 92
100 100 100 101 102 105 106 105 102 100 100 100 100 100 100 100 100 100 101 101 102 102 101 100 100 100 100 100 100 100 100 100 100 100 100 100 100 100 100 100 100 99 101 102 100 96 94 92 88 86 86 82 76 72 71 68 66 65 64 61 58 57 58 63 71 75 77 82 88 92 92 91 91 95
100 100 100 100 102 103 105 105 104 102 100 100 100 100 100 100 100 100 100 101 103 102 101 101 101 100 100 100 100 100 101 100 100 100 100 100 100 100 100 100 100 100 100 101 99 97 97 96 96 96 96 91 84 81 80 79 77 74 72 69 65 61 59 61 68 72 73 75 82 88 88 88 92 97
Wind_Speed
57 56 55 55 54 54 53 53 52 52 51 51 52 53 54 55 58 60 61 60 57 55 53 52 51 50 50 49 48 48 48 48 48 49 49 49 49 49 48 47 45 44 44 45 46 48 50 52 54 56 57 57 57 58 60 61 57 56 57 57 58 58 58 58 59 59 60 62 64 67 68 67 67 68
59 57 56 55 53 53 52 52 52 52 51 50 51 52 53 53 56 58 61 61 58 57 55 53 51 50 49 49 49 48 48 49 49 49 49 49 49 49 48 46 44 43 42 42 43 45 48 50 53 55 56 57 57 58 59 60 58 56 56 57 57 57 57 57 57 58 59 60 62 64 64 65 65 67
60 59 58 57 54 51 51 52 51 52 52 50 50 51 52 53 54 55 58 61 59 58 57 54 52 50 48 49 49 49 49 49 49 49 49 49 48 48 48 46 44 42 41 42 43 44 47 50 52 54 56 56 56 57 59 59 58 56 56 56 56 56 55 55 56 57 57 57 58 60 61 62 64 66
59 59 59 58 56 52 51 51 51 52 52 51 50 50 52 53 54 53 56 59 60 58 58 56 54 52 49 48 48 48 49 49 49 49 49 48 47 47 47 45 43 42 41 41 42 44 47 49 52 54 55 55 55 56 57 58 57 56 55 55 55 55 54 55 55 54 54 55 56 57 59 60 62 64
59 59 59 59 57 55 54 52 51 52 53 53 51 51 53 54 54 53 54 57 58 59 58 57 57 54 51 49 48 48 49 49 49 48 48 48 47 46 46 45 43 42 41 41 42 44 46 49 51 53 54 54 55 55 56 56 56 55 55 54 54 54 53 53 53 52 52 53 54 54 56 59 61 63
60 59 59 58 57 57 57 55 53 54 56 55 53 52 52 53 53 52 53 55 57 58 57 57 57 56 53 51 48 47 48 49 49 48 48 47 47 46 45 45 43 41 40 41 42 44 46 48 50 52 53 53 54 54 55 55 54 54 54 54 53 52 52 51 51 51 51 51 52 52 54 57 59 61
62 60 59 58 56 56 58 57 54 55 56 56 54 52 51 51 52 51 51 53 55 56 56 56 56 55 54 51 48 47 47 48 49 48 47 46 46 46 45 44 42 41 40 40 42 43 45 47 49 51 52 52 53 53 54 54 53 53 53 52 51 51 51 50 50 50 50 50 50 51 52 55 57 59
63 61 60 58 56 55 57 58 55 55 56 55 54 53 51 51 51 50 50 52 53 54 54 55 55 54 53 50 47 46 46 46 47 47 46 45 45 45 44 42 41 40 40 40 41 43 44 46 47 49 50 51 51 52 52 52 52 51 51 50 50 50 50 50 49 49 49 49 49 49 51 53 55 56
63 61 60 59 56 54 56 58 57 56 56 54 53 53 54 53 51 50 50 51 51 53 53 54 53 52 51 48 46 45 45 45 45 45 45 44 44 44 43 41 40 40 39 40 41 43 43 44 45 47 48 49 50 51 51 50 50 50 49 49 48 49 49 49 49 48 48 48 48 48 49 51 53 54
63 61 60 59 58 55 55 58 58 57 55 54 54 55 56 56 53 50 50 50 51 52 52 52 52 51 49 46 44 43 43 43 43 43 43 42 42 43 42 41 40 39 39 39 41 42 42 42 43 45 47 48 49 49 49 49 49 48 47 47 47 48 48 47 47 47 47 47 47 47 47 48 50 52
62 60 58 58 59 57 55 57 59 58 56 55 55 56 56 56 55 52 50 50 50 51 51 52 51 49 46 44 43 43 42 42 42 42 42 40 41 42 42 40 38 37 37 38 40 41 40 40 41 43 45 46 47 48 48 47 47 45 45 45 46 46 46 45 45 46 45 45 45 45 45 46 47 50
61 60 58 57 59 58 56 56 58 60 59 57 57 56 56 57 55 52 51 50 50 51 51 51 50 48 44 43 43 42 41 41 41 40 39 39 41 42 41 38 35 35 36 38 39 38 38 39 40 42 43 45 45 46 45 44 43 42 42 43 44 44 43 43 43 43 43 42 42 43 43 44 45 48
59 59 58 57 58 58 56 54 56 59 60 58 58 57 55 56 55 51 50 50 49 50 51 50 49 46 43 41 41 42 41 39 38 37 38 41 41 40 38 35 33 34 36 37 36 35 37 38 39 40 41 43 43 43 42 41 40 39 40 41 42 41 40 40 41 41 40 39 40 40 40 42 43 46
59 59 58 57 58 57 55 53 54 56 58 58 58 56 55 56 53 50 49 50 49 49 50 50 47 44 42 40 40 41 39 37 36 37 40 41 39 37 35 32 31 34 36 35 32 33 36 37 36 38 40 40 41 40 38 37 36 37 38 39 39 38 38 38 38 38 37 37 37 37 38 40 41 44
57 56 57 57 57 57 55 54 53 53 55 57 58 57 56 55 51 47 48 49 49 49 50 48 45 43 40 38 38 39 38 36 36 38 41 41 37 34 33 29 30 35 35 31 30 32 34 34 34 36 38 38 38 37 35 34 34 35 36 36 36 36 35 35 35 35 35 35 35 35 36 38 40 43
53 53 55 55 56 56 55 54 53 51 52 56 58 57 57 55 51 47 47 48 49 49 49 47 44 40 37 36 37 38 36 35 38 40 41 39 35 31 30 28 31 35 33 29 29 31 32 32 32 34 36 35 34 33 32 32 33 33 34 34 34 33 33 33 33 33 34 34 34 34 36 38 39 41
49 50 52 52 53 55 53 54 53 50 50 53 56 57 57 57 55 50 47 47 48 49 48 46 42 37 35 35 36 35 36 37 40 41 39 35 32 30 29 30 31 33 30 28 29 30 30 30 30 33 34 32 31 31 31 30 31 31 32 32 32 31 31 31 31 32 33 33 33 33 36 39 39 39
46 48 48 47 49 52 51 52 52 50 49 51 54 55 56 57 56 51 48 47 47 47 47 44 40 35 34 35 35 35 37 39 40 39 36 33 31 30 30 31 31 30 29 28 28 29 29 28 29 30 31 30 29 29 29 29 29 29 29 29 29 29 29 29 30 31 32 32 33 33 37 40 39 38
43 46 44 42 44 48 49 49 49 48 46 48 52 54 54 55 54 50 47 46 46 46 45 42 37 34 34 35 34 36 38 38 37 37 35 33 32 31 30 30 29 29 28 28 27 28 28 27 27 28 29 28 28 28 27 27 27 27 27 27 27 27 27 28 28 29 30 31 32 34 38 40 38 37
41 43 41 38 39 44 45 45 46 45 43 44 48 51 52 54 52 48 45 44 43 44 43 39 35 34 35 35 35 37 37 36 36 36 35 33 31 30 30 29 28 28 28 27 26 27 26 25 25 27 27 27 27 27 26 25 25 25 25 25 25 25 26 26 27 27 29 30 31 34 39 40 38 36
40 41 37 33 35 40 41 39 41 43 43 44 48 50 52 53 50 46 43 42 40 41 41 36 33 33 34 35 36 37 36 35 36 36 33 31 30 30 29 28 27 27 26 26 26 26 25 24 25 26 26 26 26 25 24 23 24 24 23 23 24 24 24 25 26 27 28 29 30 33 38 40 38 36
41 39 33 29 32 36 36 35 38 41 43 45 48 51 51 49 45 42 40 39 38 39 37 33 31 33 34 36 37 36 35 35 36 34 32 31 31 29 28 28 27 26 26 25 24 24 23 23 24 25 25 25 24 23 21 21 22 22 22 22 22 23 24 25 26 26 27 29 29 31 37 40 38 36
40 38 31 28 32 33 33 35 38 40 42 45 46 47 46 44 40 36 34 34 35 36 34 31 31 33 35 37 37 35 35 36 35 33 32 32 30 28 28 27 26 25 25 24 23 23 23 24 24 25 25 23 22 20 19 20 20 20 20 21 22 23 24 24 25 25 26 28 28 30 35 39 38 36
40 37 31 30 32 32 32 36 39 38 40 43 43 41 40 37 33 30 29 30 33 34 33 31 31 33 35 36 35 34 35 35 34 33 32 29 28 27 27 26 25 25 24 23 23 23 23 23 24 23 22 21 19 19 18 19 19 19 21 22 22 23 24 25 25 26 26 27 27 28 33 37 38 36
39 37 32 33 34 33 33 36 39 39 39 41 40 37 34 31 28 27 28 29 32 34 33 32 33 34 35 36 34 34 35 34 33 32 30 28 27 28 27 25 24 24 23 22 23 23 22 22 22 21 20 20 18 17 18 18 18 19 20 21 22 22 24 25 26 26 26 26 26 27 31 35 37 36
40 37 32 33 34 35 33 33 36 38 37 37 37 34 29 27 27 27 27 29 33 35 34 33 34 35 36 36 34 33 34 32 31 30 28 27 28 27 26 25 23 23 23 23 22 21 20 20 20 19 19 18 17 17 17 17 17 18 19 20 21 22 23 24 25 25 24 24 24 26 28 32 36 36
40 37 32 32 32 33 34 32 32 34 33 33 34 31 27 26 26 26 28 31 34 35 34 34 35 35 35 34 32 32 31 29 28 28 28 27 28 27 25 24 23 23 23 22 21 19 18 19 19 18 18 17 16 16 17 16 16 17 18 19 20 21 21 22 22 22 21 21 21 24 26 29 33 35
38 38 32 32 31 30 32 31 30 30 30 30 30 28 26 25 25 25 28 32 34 35 35 35 35 34 32 31 30 30 29 27 27 28 28 28 28 26 24 23 23 23 22 21 19 18 18 19 19 18 16 15 15 16 16 15 15 16 16 16 17 18 18 18 18 18 17 17 17 20 24 26 29 33
35 37 30 30 30 29 29 29 28 29 28 26 25 25 24 25 26 25 28 31 33 34 34 33 32 31 29 29 29 28 28 28 28 28 28 28 27 25 23 23 22 22 21 20 19 18 19 19 19 17 15 15 15 15 15 14 13 13 13 12 12 13 14 14 14 13 13 12 13 16 19 23 26 30
31 37 30 28 30 29 29 28 27 28 28 26 24 23 23 25 25 24 27 30 32 32 31 30 29 28 28 29 30 29 29 29 28 28 28 27 25 23 22 21 21 20 20 20 19 19 19 20 18 17 15 14 15 15 14 13 11 10 9 8 9 10 10 9 9 9 8 7 8 11 15 19 22 26
27 36 30 27 29 28 27 27 26 26 27 27 26 25 24 24 24 23 24 27 28 27 27 27 27 28 30 31 31 30 29 28 28 28 27 25 24 23 22 21 21 20 20 20 20 20 20 20 18 16 15 14 15 14 12 11 9 7 6 6 5 6 6 5 5 5 5 4 4 5 9 13 16 19
21 34 32 26 27 28 26 26 25 23 24 26 27 27 26 25 24 22 21 23 24 25 26 28 29 30 31 31 30 29 28 28 28 28 26 25 24 22 21 20 20 20 20 21 22 21 21 20 18 17 15 14 14 13 12 11 9 7 6 5 3 2 3 4 3 3 4 3 1 1 3 5 7 10
15 29 33 28 27 27 25 23 22 22 22 23 26 28 27 24 23 22 22 23 25 27 28 29 29 30 30 29 28 27 27 28 28 27 26 25 23 21 20 20 20 21 22 22 23 22 22 21 19 17 16 14 14 13 12 12 10 8 7 5 3 2 2 3 4 5 5 4 1 2 4 5 4 4
11 22 31 31 28 26 23 20 19 20 21 23 25 26 26 24 22 22 23 25 26 27 27 28 27 27 27 27 26 26 27 28 28 27 26 24 22 20 20 20 20 21 23 24 24 23 22 21 20 18 16 15 14 13 13 12 11 9 8 6 4 4 4 3 4 5 6 5 2 2 5 8 9 8
13 17 23 26 25 22 20 18 18 19 20 23 25 25 25 24 23 24 26 27 27 27 27 27 27 26 25 25 25 25 27 27 27 27 26 24 22 20 19 19 19 21 23 24 24 23 23 22 21 19 17 16 15 14 13 12 11 11 10 8 6 5 4 3 3 4 5 5 5 2 3 7 10 12
15 17 17 18 17 16 15 16 18 18 20 22 23 23 24 25 25 27 28 28 27 28 28 27 26 25 24 25 25 25 26 26 26 26 25 23 21 20 19 19 20 22 24 25 24 24 23 23 21 19 18 17 16 14 14 13 12 12 12 10 8 5 4 3 3 3 4 5 5 5 3 3 6 9
16 17 16 15 13 13 15 17 16 17 19 21 20 22 25 27 27 29 30 30 30 29 28 26 25 25 24 25 25 25 25 25 25 24 24 22 21 20 20 19 19 21 23 24 24 24 23 22 21 19 18 18 17 16 15 14 13 13 13 12 9 6 3 3 3 3 3 3 2 4 4 3 1 3
15 15 13 12 11 11 14 15 14 14 18 21 22 24 28 29 30 31 32 32 31 29 28 26 25 24 25 25 25 25 25 24 23 23 23 22 22 21 20 19 19 19 20 21 22 22 21 20 20 20 19 18 18 17 17 15 14 13 13 13 11 8 5 4 3 2 2 2 1 2 4 5 4 2
10 11 12 13 13 12 13 13 13 14 17 20 23 27 31 32 32 33 33 32 30 28 27 26 25 24 24 24 24 23 23 22 22 22 22 22 22 21 20 20 19 18 18 19 19 19 19 19 19 19 19 19 19 19 18 16 15 14 13 12 12 10 7 5 4 2 0 2 2 2 3 4 4 4
10 11 11 13 15 15 13 13 13 14 16 20 25 31 34 34 33 34 34 33 30 28 27 25 25 24 24 23 23 22 21 20 20 20 21 21 22 22 21 21 20 19 19 19 18 18 18 18 18 18 19 21 21 20 18 17 16 15 13 12 12 11 8 5 5 4 2 1 3 4 3 3 4 5
11 12 11 12 13 13 12 12 12 13 16 21 27 33 35 35 33 33 33 33 30 28 28 27 25 25 24 23 22 21 20 19 19 19 19 20 21 22 22 22 22 21 21 19 18 18 18 18 18 19 21 23 21 18 17 16 16 15 14 13 12 11 8 6 6 6 4 2 2 3 4 4 5 6
11 11 11 12 13 13 12 11 12 13 17 22 29 34 35 34 32 32 32 32 30 29 29 28 26 25 24 23 22 21 20 19 19 18 19 19 20 21 22 22 22 21 20 19 18 19 19 19 20 21 22 22 19 16 16 16 16 15 15 14 13 12 9 7 8 8 6 4 3 2 3 4 5 5
10 10 11 13 14 14 13 13 14 15 18 24 31 34 34 33 32 31 31 32 31 29 29 29 27 26 25 23 22 21 21 20 19 18 18 18 19 19 20 20 20 20 20 19 19 20 20 21 22 22 21 20 18 16 16 17 16 16 15 15 14 13 11 9 9 10 8 6 4 3 3 3 4 5
8 10 12 13 14 14 15 15 16 17 20 25 31 34 33 32 32 31 30 29 29 28 28 28 27 25 24 22 21 21 21 20 19 19 18 18 18 19 19 19 19 19 19 19 18 18 20 22 23 22 21 20 18 17 17 18 17 17 17 17 16 15 13 12 12 11 10 8 6 5 4 4 4 4
5 6 9 12 14 15 16 17 17 17 19 25 31 34 33 32 32 31 29 28 27 26 26 25 24 24 23 22 21 21 21 20 19 18 18 18 18 19 19 19 19 19 19 18 18 18 18 19 20 20 20 19 19 18 18 18 18 18 18 17 17 17 16 15 14 14 12 11 9 7 5 5 6 5
Wind_Direction
268 267 267 267 266 266 265 265 266 267 269 270 269 267 265 264 263 260 258 256 254 251 249 247 246 247 247 247 247 247 248 250 251 253 254 255 256 256 255 254 253 253 254 255 257 258 260 261 262 263 262 261 260 258 257 257 256 254 254 254 255 255 255 255 255 255 255 254 253 252 251 250 249 249
266 264 263 263 263 263 264 264 265 267 268 269 270 269 266 264 263 261 259 256 253 252 250 247 246 246 246 247 247 247 247 249 251 252 254 255 256 256 256 255 255 255 255 256 258 259 260 260 261 261 261 260 259 257 257 257 256 254 253 253 254 254 254 255 255 255 255 254 254 254 253 252 251 250
265 261 259 259 259 258 259 261 263 265 266 267 268 268 267 265 262 261 260 257 253 252 251 248 247 245 245 246 246 246 247 248 250 251 253 254 255 256 256 256 256 256 257 258 258 259 259 259 260 260 260 259 258 257 256 256 255 254 253 253 253 253 254 254 254 254 255 255 255 254 254 253 252 251
264 261 258 256 255 252 252 256 259 262 264 264 265 265 265 264 262 260 259 258 254 253 252 249 248 246 244 243 244 244 245 246 248 250 252 253 255 255 256 256 256 257 258 259 259 259 258 258 259 259 259 258 257 256 255 255 255 253 253 253 253 253 253 253 254 255 255 255 255 254 254 253 252 251
264 262 260 257 255 250 248 251 255 258 261 262 263 264 263 262 263 261 259 258 256 254 253 251 249 248 246 244 242 242 243 245 246 249 251 253 254 254 255 255 256 258 258 259 259 258 258 258 258 258 258 257 256 255 254 254 254 253 252 253 253 253 253 254 254 255 255 255 255 255 254 253 252 251
263 262 260 259 256 250 246 247 251 255 257 259 262 265 264 262 263 263 260 259 257 255 253 252 251 250 248 246 244 242 242 243 245 247 249 252 254 254 254 255 256 258 258 259 258 257 257 257 257 257 256 256 256 254 254 253 252 252 252 253 253 253 253 254 254 255 255 255 255 254 253 252 251 250
264 261 259 258 256 251 246 245 249 251 253 256 260 263 264 262 262 263 262 259 258 256 254 253 252 252 250 249 246 244 242 242 244 246 248 250 252 254 254 254 256 258 258 258 257 256 256 256 256 256 256 255 255 254 253 253 252 252 252 253 253 253 253 254 254 255 255 256 255 254 253 251 250 249
264 261 258 256 255 252 246 243 246 248 248 253 258 260 262 261 261 263 263 259 257 256 255 253 253 253 252 250 248 246 244 243 243 245 247 249 251 253 253 254 255 257 258 258 257 257 256 255 255 255 255 255 254 254 253 252 252 252 252 253 253 253 254 254 255 255 255 256 256 255 254 251 249 248
263 260 258 255 253 252 246 241 242 244 245 250 256 257 258 260 261 263 263 259 256 255 255 253 253 253 253 251 249 247 246 245 244 246 247 248 250 252 253 253 254 255 256 257 257 257 256 255 255 254 255 254 254 253 253 252 252 251 252 253 253 253 254 254 254 255 255 256 257 256 255 252 249 246
262 260 258 255 252 251 246 239 239 241 242 247 253 254 257 259 259 262 262 258 255 254 253 253 252 252 252 251 249 248 247 246 246 246 247 247 249 251 251 252 253 254 255 255 256 257 257 256 255 254 254 254 254 253 252 251 251 251 251 252 252 252 253 253 254 255 256 257 258 258 257 254 249 245
262 259 257 254 252 250 245 238 236 239 240 245 249 251 255 258 258 260 260 257 254 253 252 252 252 252 252 250 249 247 247 246 246 247 247 247 248 249 250 250 251 253 254 254 255 256 257 256 255 255 255 254 254 253 252 251 250 250 251 251 251 251 252 253 253 254 256 258 259 260 259 255 250 243
261 258 255 252 250 249 246 237 234 238 240 243 247 249 253 257 257 258 258 255 253 252 251 251 252 251 251 249 248 247 246 246 247 247 247 245 245 246 248 249 250 252 253 254 255 256 256 256 254 254 254 254 253 252 251 251 250 250 249 249 250 251 251 252 253 254 256 259 261 261 260 256 249 242
258 255 252 249 247 247 244 237 233 237 240 241 245 247 250 255 257 257 256 254 252 251 250 250 251 251 249 248 248 247 247 248 249 246 244 243 243 244 247 249 250 251 251 252 253 255 255 255 254 254 254 253 253 252 251 250 249 248 248 248 249 250 250 251 253 254 257 260 262 262 259 254 248 241
255 252 249 246 244 243 241 234 232 236 238 239 242 246 249 253 255 256 255 253 251 250 249 249 250 250 248 247 247 248 249 250 248 243 241 241 242 242 244 247 248 249 249 249 251 254 255 255 255 254 254 253 252 251 250 249 248 247 247 248 248 249 250 251 253 255 258 261 263 261 256 251 246 242
252 248 245 243 242 241 237 230 230 234 235 237 240 244 248 251 254 255 254 252 250 248 248 249 249 248 247 246 247 248 249 249 245 240 239 240 240 241 242 243 245 248 249 249 251 253 255 256 256 255 253 252 251 251 250 248 247 246 247 247 248 249 251 252 254 257 260 263 263 259 252 247 245 244
249 244 241 241 240 240 235 228 228 232 232 234 239 243 248 252 253 255 255 252 249 247 247 248 248 247 247 245 246 247 248 246 242 238 238 239 239 239 239 238 241 246 249 251 253 255 255 255 255 254 253 251 250 249 248 246 245 245 246 247 249 250 251 252 255 258 261 263 262 256 247 243 244 245
246 239 237 238 238 238 234 226 227 231 231 232 238 242 247 251 253 255 256 253 248 245 245 246 246 245 245 244 245 247 246 243 239 237 238 239 238 237 236 236 239 245 250 252 253 254 255 254 252 251 251 250 248 247 246 244 244 245 246 248 249 250 252 253 256 259 261 263 261 252 242 240 243 245
243 235 233 234 235 237 234 226 225 230 231 232 237 242 247 251 254 255 256 253 248 244 242 243 244 243 243 243 243 244 244 241 239 238 237 236 235 234 235 236 240 245 249 251 252 253 253 252 250 249 249 248 247 246 245 244 245 246 247 248 250 251 253 254 257 259 261 262 260 249 239 239 242 242
239 230 228 230 233 236 234 225 223 228 231 233 238 243 247 251 254 254 253 252 249 243 239 240 242 240 240 241 241 242 242 240 238 237 235 233 233 233 235 238 242 245 248 250 251 251 251 250 248 247 246 246 245 245 244 244 246 247 248 249 250 251 253 255 257 260 261 262 258 247 238 238 241 239
233 225 223 226 231 235 234 226 222 226 230 232 237 242 246 250 253 253 251 250 247 241 237 237 238 237 238 239 239 240 240 238 236 234 233 232 232 234 237 240 242 244 247 248 248 248 248 246 245 244 244 244 244 245 245 246 247 248 249 249 250 251 253 256 258 260 261 261 257 246 237 237 239 236
226 219 219 224 229 234 233 225 220 224 228 230 235 240 245 250 252 251 249 248 243 237 234 233 233 235 236 236 236 237 237 235 233 232 231 231 232 234 237 240 242 244 245 245 245 245 245 243 241 241 242 243 245 245 246 247 248 248 248 249 250 251 254 257 259 260 261 260 257 247 237 236 237 235
220 213 214 220 226 230 228 220 216 220 224 228 233 239 244 249 250 248 248 246 239 231 229 230 230 231 232 232 233 233 232 230 230 230 229 229 231 233 237 239 240 241 242 242 241 241 241 240 239 240 241 243 245 245 245 247 247 247 248 250 251 254 257 259 261 263 262 260 257 248 239 235 235 233
215 208 209 214 220 223 220 215 214 217 223 228 233 240 245 248 247 246 247 244 235 226 224 227 229 228 229 231 231 229 228 227 227 228 228 228 231 233 236 238 237 238 239 239 239 238 238 237 237 239 241 242 244 244 243 244 246 248 250 253 255 258 261 263 264 265 265 262 257 249 241 235 233 232
211 205 206 211 215 216 214 213 212 214 223 231 235 239 245 247 247 247 245 239 229 222 221 224 227 227 228 231 230 227 226 225 224 226 227 229 231 233 234 235 235 235 236 235 235 236 235 236 236 237 239 240 240 241 241 243 247 252 256 259 262 264 266 267 267 266 265 262 256 249 241 234 230 229
207 203 205 208 213 214 211 213 215 216 224 233 237 239 242 246 247 244 238 230 222 217 218 221 224 224 225 227 225 223 223 222 223 225 227 227 229 230 231 231 231 231 231 230 231 233 233 234 234 233 234 235 235 238 243 246 250 256 260 264 266 267 266 267 267 266 264 260 255 249 241 233 228 226
206 202 203 206 215 218 214 214 217 218 224 233 238 240 240 242 244 239 231 223 217 215 216 220 222 223 223 222 220 218 219 220 222 225 225 224 226 228 228 228 227 226 226 226 227 228 228 230 230 227 227 230 233 237 244 249 253 258 262 265 267 267 266 267 267 265 263 258 252 247 241 233 227 224
206 202 203 204 211 219 217 214 215 217 221 229 236 241 240 240 241 234 224 219 215 213 216 219 221 222 222 219 216 214 215 217 220 222 222 220 223 225 224 223 223 222 223 223 223 222 222 223 224 223 223 228 233 238 243 248 253 257 261 264 266 268 267 267 267 266 263 258 251 245 240 234 227 223
208 203 203 202 205 211 214 215 216 218 221 227 235 241 242 240 239 230 219 216 214 213 216 219 220 221 220 215 211 210 211 213 215 216 216 218 220 221 220 219 220 220 219 219 217 214 215 217 219 219 221 226 233 239 242 246 251 255 260 265 268 270 272 271 270 269 265 259 251 244 239 234 229 224
210 202 202 202 204 210 215 218 220 220 219 220 228 236 239 239 237 226 215 214 214 213 215 218 220 219 214 209 207 207 207 209 209 210 214 217 219 218 216 217 219 219 217 214 211 207 209 213 215 216 219 224 232 238 242 244 248 253 259 265 268 271 275 277 274 270 267 263 254 245 238 234 231 227
209 200 198 201 205 212 217 219 221 220 214 209 212 222 230 237 235 221 211 212 213 212 214 217 217 213 206 204 205 205 204 205 207 209 213 216 217 216 214 214 216 215 211 207 204 203 207 211 211 212 215 221 229 236 240 242 245 251 259 266 270 272 278 284 284 283 281 272 256 244 238 234 232 229
210 198 193 196 201 207 213 216 217 217 213 207 207 212 219 229 229 217 209 211 210 208 211 213 208 203 201 202 204 204 203 204 207 210 212 211 212 213 211 210 211 207 202 201 200 200 205 209 208 208 212 217 223 231 235 235 234 238 246 253 265 277 289 301 304 305 304 288 260 242 237 238 237 233
212 198 192 194 200 204 211 214 215 215 211 209 210 213 214 219 221 213 204 202 200 199 202 203 200 198 199 202 203 203 202 204 207 209 209 208 208 209 208 208 206 200 196 199 200 199 202 206 206 207 210 214 219 223 226 225 221 221 230 237 244 277 303 314 316 317 317 305 279 209 212 232 244 238
210 198 196 198 202 207 213 217 217 217 214 209 211 214 213 212 211 205 196 191 191 193 195 196 196 198 199 201 202 202 202 204 206 207 206 206 206 205 205 204 201 195 195 199 200 199 201 203 205 207 209 213 215 217 218 218 214 214 228 238 223 202 251 299 324 336 339 336 296 187 176 165 167 207
196 193 200 205 209 214 221 223 220 218 214 209 209 212 213 210 203 195 190 188 188 188 189 191 195 198 200 201 202 202 203 205 205 205 204 203 203 203 203 202 197 194 196 200 201 200 201 203 204 205 208 211 212 211 214 217 211 207 214 218 204 200 223 273 325 338 345 354 9 167 176 171 166 167
180 179 195 207 213 218 222 221 217 214 211 209 209 210 208 205 197 188 186 186 184 182 184 188 192 196 199 200 201 202 203 204 204 203 202 201 200 200 201 199 195 195 198 202 203 202 202 204 205 205 206 209 209 208 211 212 207 202 202 201 195 203 223 255 306 333 348 360 18 62 154 180 182 180
169 171 181 193 201 205 208 208 209 210 207 206 208 205 199 195 191 185 183 182 179 179 183 187 190 193 196 197 199 200 201 202 202 201 201 199 198 200 200 198 195 196 198 203 206 205 205 206 206 204 204 206 208 207 206 207 203 200 200 197 192 195 217 252 288 318 344 1 24 51 79 160 188 193
156 165 172 180 186 192 196 199 203 206 203 198 194 189 186 186 186 184 180 178 177 179 182 185 187 190 192 194 195 196 196 198 199 199 199 199 199 201 202 199 197 198 200 204 208 209 209 208 207 204 203 204 206 205 204 205 203 201 202 201 196 196 222 272 297 316 336 352 35 58 54 55 106 189
153 157 160 168 177 186 192 194 196 202 203 195 183 178 179 182 183 181 178 176 177 179 180 181 183 187 189 191 192 193 193 194 195 196 198 199 200 203 204 201 198 200 201 204 208 211 212 211 206 203 203 204 205 206 205 205 204 203 204 207 208 211 227 260 284 311 349 356 14 65 56 50 50 60
164 160 154 160 172 184 193 198 200 201 201 194 181 176 178 181 181 179 176 175 176 178 178 179 180 183 186 187 188 189 190 190 191 194 197 200 201 203 206 205 202 201 201 203 203 204 209 210 205 201 202 205 207 207 205 204 206 207 207 210 218 223 225 232 244 250 334 41 47 66 72 60 50 46
174 172 165 165 174 183 192 202 207 204 198 189 180 177 179 181 181 179 177 175 175 176 176 176 176 178 180 181 182 183 183 184 186 189 194 198 200 201 205 208 208 205 205 204 199 196 200 204 200 198 203 209 211 209 205 202 206 211 211 212 221 227 220 208 213 221 209 96 71 68 69 67 57 50
173 177 176 173 177 182 185 192 200 198 191 185 180 180 181 182 182 180 179 179 178 177 174 172 172 173 174 174 176 178 179 180 184 187 189 192 195 198 201 206 210 211 210 207 200 196 197 197 195 197 206 213 214 210 207 205 206 211 214 215 222 227 220 202 200 209 207 166 104 81 76 74 62 49
174 179 178 176 178 180 178 179 184 186 184 182 182 183 185 184 182 181 181 180 180 178 174 171 170 170 171 171 173 177 180 182 185 187 188 189 192 196 199 203 208 213 215 211 207 202 199 197 196 200 209 215 213 208 209 210 208 209 213 215 218 224 222 206 199 205 206 189 155 122 91 79 68 59
166 175 180 182 184 184 182 180 180 180 180 181 183 186 187 185 183 183 183 181 179 178 175 172 171 171 171 171 174 179 182 184 186 188 188 190 193 196 197 199 203 208 212 212 210 207 203 201 202 204 210 215 212 207 210 213 209 206 209 213 216 218 217 209 203 205 206 195 172 154 129 97 85 84
154 167 180 189 192 191 188 186 183 181 180 181 184 187 189 187 185 186 186 183 180 180 179 176 174 173 172 172 176 181 183 185 187 188 189 192 196 197 197 196 198 201 205 208 209 207 205 206 207 208 212 215 214 211 213 217 213 206 204 208 213 214 211 209 207 207 206 200 188 177 163 135 113 103
137 157 174 187 195 197 194 191 188 184 182 182 184 187 189 190 189 189 189 186 183 182 181 179 177 176 176 177 180 183 185 186 188 189 191 195 198 198 198 197 197 198 202 206 207 206 206 207 207 208 211 214 214 213 213 217 219 215 207 204 208 212 210 208 208 210 209 204 197 193 181 153 137 132